{"data":{"norad_id":66544,"epoch":"2026-09-20T11:03:59.427936Z","epoch_age_seconds":92512,"freshness":"FRESH","line1":"1 66544U 25265AE  26263.46110449  .00013230  00000+0  48921-3 0  9998","line2":"2 66544  43.0008 257.7524 0001589 266.3584  93.7086 15.27594297 46904","mean_motion":15.27594297,"eccentricity":0.0001589,"inclination_deg":43.0008,"raan_deg":257.7524,"arg_perigee_deg":266.3584,"mean_anomaly_deg":93.7086,"bstar":0.00048921,"rev_number":4690,"period_min":94.265866456033,"perigee_km":481.91605034408,"apogee_km":484.09652168037,"semimajor_km":6861.1432860122,"source":"CELESTRAK","updated_at":"2026-09-21T09:00:35.969155Z"}}